Location: Caltech
(34.1382°N, 118.1253°W)
Time: 08:43:25
(UTC-07:00)

Cosmos 1697 Rocket - Visible Passes

Search period start: 18 September 2014 00:00
Search period end: 28 September 2014 00:00
Orbit: 833 x 843 km, 71.0° (Epoch: 17 September)

Date Brightness Start Highest point End Pass type
(mag) Time Alt. Az. Time Alt. Az. Time Alt. Az.
26 Sep 5.5 06:06:24 10° NNE 06:09:36 15° NE 06:12:47 10° E visible
27 Sep 5.5 05:50:36 10° NNE 05:53:29 14° NE 05:56:23 10° E visible
27 Sep 4.7 20:35:18 10° S 20:35:59 14° S 20:35:59 14° S visible
